CDT,Max TemperatureF,Mean TemperatureF,Min TemperatureF,Max Dew PointF,MeanDew PointF,Min DewpointF,Max Humidity, Mean Humidity, Min Humidity, Max Sea Level PressureIn, Mean Sea Level PressureIn, Min Sea Level PressureIn, Max VisibilityMiles, Mean VisibilityMiles, Min VisibilityMiles, Max Wind SpeedMPH, Mean Wind SpeedMPH, Max Gust SpeedMPH,PrecipitationIn, CloudCover, Events, WindDirDegrees
2013-6-1,77,70,63,67,61,54,92,77,47,29.90,29.78,29.68,10,10,5,22,11,30,0.02,4,Rain-Thunderstorm,214
2013-6-2,64,60,55,57,53,49,84,74,66,30.06,29.99,29.88,10,10,10,14,8,18,0.00,8,,308
2013-6-3,69,62,55,54,51,48,86,68,48,30.13,30.06,30.02,10,10,10,9,2,,0.00,4,,94
2013-6-4,74,62,52,57,53,50,92,70,49,30.11,30.07,30.01,10,10,5,14,4,,0.00,0,,111
2013-6-5,77,66,55,64,58,54,94,72,48,30.05,29.97,29.90,10,9,2,6,1,,0.00,2,,187
2013-6-6,76,69,62,62,57,48,89,68,38,29.92,29.89,29.86,10,9,2,13,6,17,0.00,5,,315
2013-6-7,74,65,57,56,55,53,92,71,49,29.95,29.93,29.91,10,8,2,13,6,18,0.00,2,,339
2013-6-8,79,66,54,58,54,50,92,65,37,29.98,29.95,29.91,10,10,4,10,3,16,0.00,1,,163
2013-6-9,74,68,62,64,60,56,90,77,61,29.94,29.87,29.80,10,10,3,12,7,16,0.25,3,Rain-Thunderstorm,171
2013-6-10,77,70,62,63,60,59,91,75,52,29.93,29.86,29.78,10,10,7,12,5,,0.07,5,Rain,274
2013-6-11,89,74,60,71,66,58,93,72,48,29.95,29.90,29.85,10,10,5,14,4,18,0.00,0,,191
2013-6-12,94,81,68,72,70,67,93,66,42,29.94,29.82,29.71,10,10,5,21,8,30,0.00,1,,204
2013-6-13,84,75,67,68,59,52,87,60,33,30.03,29.95,29.78,10,10,5,20,11,32,0.00,3,Rain,338
2013-6-14,80,71,62,64,59,56,89,66,43,30.13,30.06,29.93,10,10,10,12,4,17,0.00,0,Rain-Thunderstorm,116
2013-6-15,87,76,67,71,66,60,92,74,57,30.11,30.00,29.91,10,10,2,30,7,36,0.95,3,Rain-Thunderstorm,154
2013-6-16,81,74,68,72,68,65,93,82,68,30.04,29.98,29.93,10,10,4,10,4,,0.04,5,Rain,213
2013-6-17,83,76,68,71,68,63,94,77,58,29.99,29.95,29.91,10,8,2,12,3,20,0.00,0,,18
2013-6-18,85,75,65,68,63,56,88,66,37,30.02,29.97,29.93,10,10,10,13,6,17,0.00,0,,302
2013-6-19,84,72,61,66,60,56,84,65,42,30.11,30.07,30.03,10,10,5,8,4,,0.00,0,,51
2013-6-20,89,76,64,70,65,62,92,67,42,30.13,30.09,30.05,10,10,7,13,3,17,0.00,0,,149
2013-6-21,90,81,72,73,70,68,87,69,54,30.10,30.06,29.97,10,10,7,15,6,20,0.00,1,Rain-Thunderstorm,165
2013-6-22,89,80,72,76,70,62,87,75,56,30.10,30.04,29.99,10,10,7,17,8,23,0.01,0,Rain,173
2013-6-23,87,77,68,73,67,62,91,78,62,30.05,30.01,29.93,10,10,3,15,8,25,0.19,1,Rain-Thunderstorm,162
2013-6-24,89,78,68,74,70,65,90,74,51,30.08,30.00,29.90,10,10,5,15,6,18,0.00,0,Rain-Thunderstorm,177
2013-6-25,90,82,74,75,71,69,84,69,55,29.96,29.90,29.83,10,10,10,16,8,23,0.00,0,Thunderstorm,184
2013-6-26,90,82,73,75,72,65,85,75,56,29.85,29.79,29.73,10,10,7,23,8,36,0.00,3,Rain-Thunderstorm,218
2013-6-27,91,82,73,74,68,62,82,65,40,29.92,29.88,29.82,10,10,10,10,5,17,0.00,0,,280
2013-6-28,87,79,71,68,59,49,82,53,27,29.88,29.80,29.73,10,10,10,21,8,32,0.00,2,,290
2013-6-29,80,72,65,64,61,56,90,70,50,29.79,29.72,29.69,10,10,3,22,8,38,0.22,2,Rain-Thunderstorm,310
2013-6-30,77,70,63,63,61,59,90,75,55,29.99,29.89,29.80,10,10,7,17,9,24,0.05,5,Rain,355